User: anonymous   Login
Location: Unspecified
(0.0000°N, 0.0000°E)
Time: 06:05:50
(UTC+00:00)
Language:

GALILEO-FM4 - Orbit

View from above orbital plane
View from above orbital plane
View from above satellite
View from above satellite

Ground track
Ground track

The orbit data is extracted from the following two-line orbital elements,

1 38858U 12055B   18231.98286462 -.00000003  00000-0  00000+0 0  9998
2 38858  54.9136 180.1783 0003345 270.2160  89.7111  1.70473859 36384
Epoch (UTC): 19 August 2018 23:35:19
Eccentricity: 0.0003345
inclination: 54.9136°
perigee height: 23212 km
apogee height: 23232 km
right ascension of ascending node: 180.1783°
argument of perigee: 270.2160°
revolutions per day: 1.70473859
mean anomaly at epoch: 89.7111°
orbit number at epoch: 3638

The dashed part of the orbit path shows where the satellite is in the earth's shadow,  

DLR